[[{"header":{"parameterUnit":"m.s-1","parameterCategory":1,"la1":30.2991,"la2":30.254,"lo1":-89.0895,"lo2":-89.0444,"dy":0.0017,"dx":0.0017,"nx":28,"ny":28,"refTime":"2025-08-30T03:00:00:Z","depth":0,"parameterNumber":2,"parameterNumberName":"U-component_of_WINDS"},"data":[0,0,0,0,0,0,0,0,0,0,0,0,0,0,0,0,0,0,0,0,0,0,0,0,0,0,0,0,0,0,0,0,0,0,0,0,0,0,0,0,0,0,0,0,0,0,0,0,0,0,0,0,0,0,0,0,0,0,-5.6288,-5.6288,0,-5.6296,-5.6296,-5.6296,-5.6168,-5.6165,-5.6161,-5.6158,-5.6166,-5.6169,-5.6172,0,0,0,0,0,0,0,0,0,0,0,0,0,-5.6162,-5.6165,-5.6288,-5.6288,-5.6288,-5.6296,-5.6296,-5.6296,-5.6169,-5.6164,-5.616,-5.6156,-5.6165,-5.6169,-5.6173,0,0,0,0,0,0,0,0,0,0,0,0,0,-5.6198,-5.6166,-5.6288,-5.6225,-5.622,-5.6296,-5.6296,-5.6296,-5.617,-5.6164,-5.6159,-5.6154,-5.6163,-5.6168,-5.6173,-5.631,0,0,-5.6189,-5.6191,0,0,0,0,0,0,0,0,-5.6196,-5.6203,-5.6234,-5.623,-5.6224,-5.6226,-5.6254,-5.6301,-5.6171,-5.6189,-5.6158,-5.6152,-5.619,-5.6193,-5.6205,-5.631,-5.631,-5.619,-5.6193,-5.6195,-5.6196,0,0,0,0,0,0,0,-5.6194,-5.6202,-5.6291,-5.6235,-5.6229,-5.6197,-5.6196,-5.6263,-5.6218,-5.6187,-5.6177,-5.618,-5.6186,-5.6201,-5.6205,-5.631,-5.6189,-5.6194,-5.6197,-5.6199,-5.6529,-5.6534,0,0,0,0,0,0,-5.62,-5.62,-5.6291,-5.6291,-5.6197,-5.6204,-5.6203,-5.623,-5.6217,-5.621,-5.6185,-5.6174,-5.6195,-5.6199,-5.6205,-5.6364,-5.6195,-5.62,-5.6203,-5.6523,-5.653,-5.6536,0,0,0,0,0,0,-5.6198,-5.6209,-5.629,-5.6243,-5.6251,-5.6211,-5.6243,-5.6233,-5.6248,-5.6216,-5.6207,-5.6208,-5.6191,-5.6197,-5.6285,-5.6362,-5.6202,-5.6207,-5.6516,-5.6525,-5.6533,-5.6684,0,0,0,0,0,0,-5.6195,-5.6209,-5.626,-5.6246,-5.6254,-5.6371,-5.6248,-5.6237,-5.6257,-5.6244,-5.6235,-5.6229,-5.6187,-5.6278,-5.629,-5.6367,-5.6211,-5.6509,-5.652,-5.653,-5.6672,-5.6697,-5.6718,0,0,0,0,0,-5.619,-5.6302,-5.6264,-5.6275,-5.6318,-5.6376,-5.6381,-5.633,-5.6264,-5.6315,-5.6295,-5.6229,-5.6352,-5.6288,-5.63,-5.638,-5.6504,-5.6517,-5.6529,-5.6662,-5.6692,-5.6717,0,0,0,0,0,0,-5.6326,-5.6299,-5.6256,-5.6366,-5.6374,-5.6354,-5.6417,-5.6364,-5.639,-5.6377,-5.6313,-5.6312,-5.641,-5.6403,-5.6332,-5.6512,-5.6416,-5.6432,-5.6513,-5.6541,-5.6564,-5.6563,-5.6215,0,0,0,0,0,-5.6369,-5.6419,-5.6392,-5.6492,-5.6498,-5.6458,-5.6481,-5.6441,-5.6447,-5.645,-5.6435,-5.6444,-5.6484,-5.6512,-5.6547,-5.667,-5.6667,-5.6731,-5.6754,-5.6773,-5.6788,-5.6854,-5.6882,-5.6578,-5.6577,-5.6577,0,0,-5.6458,-5.6449,-5.6484,-5.6519,-5.652,-5.6574,-5.6461,-5.6521,-5.656,-5.6459,-5.6541,-5.6531,-5.6536,-5.6643,-5.6689,-5.664,-5.6872,-5.679,-5.6805,-5.6809,-5.687,-5.6899,-5.6925,-5.6586,-5.6585,-5.6583,0,0,-5.6647,-5.6645,-5.6728,-5.6733,-5.6737,-5.671,-5.673,-5.6718,-5.6708,-5.679,-5.6715,-5.6761,-5.6831,-5.6838,-5.6851,-5.7045,-5.6986,-5.7059,-5.7178,-5.7244,-5.7268,-5.7289,-5.7359,-5.7385,-5.7073,-5.7074,-5.7074,0,-5.6756,-5.6833,-5.6778,-5.6844,-5.6862,-5.6774,-5.6858,-5.6865,-5.6881,-5.6896,-5.6841,-5.6929,-5.6926,-5.7033,-5.7081,-5.7094,-5.7116,-5.7059,-5.7269,-5.7289,-5.7308,-5.7374,-5.7401,-5.7082,-5.7081,-5.708,-5.708,0,-5.6969,-5.7023,-5.709,-5.7109,-5.7134,-5.7209,-5.7166,-5.7198,-5.7157,-5.7136,-5.7221,-5.7214,-5.7248,-5.727,-5.723,-5.7373,-5.7343,-5.728,-5.7182,-5.7347,-5.7408,-5.7433,-5.7095,-5.7092,-5.7089,-5.7087,0,0,-5.7242,-5.7231,-5.7256,-5.7264,-5.7264,-5.7305,-5.7376,-5.7409,-5.7439,-5.7453,-5.7512,-5.7575,-5.7517,-5.7532,-5.7492,-5.755,-5.7705,-5.7479,-5.7478,-5.7522,-5.7863,-5.7911,-5.7942,-5.7666,-5.7671,-5.7674,-5.7863,0,-5.7427,-5.7548,-5.7502,-5.7627,-5.7678,-5.7595,-5.7658,-5.7664,-5.7647,-5.7687,-5.7667,-5.7713,-5.7633,-5.7641,-5.7694,-5.7675,-5.7773,-5.7661,-5.7721,-5.7724,-5.7723,-5.7973,-5.8024,-5.8202,-5.7887,-5.7891,-5.7894,0,-5.7658,-5.7683,-5.7814,-5.7806,-5.7825,-5.7883,-5.791,-5.7949,-5.7956,-5.7939,-5.7957,-5.7905,-5.7975,-5.7879,-5.7975,-5.79,-5.7922,-5.7917,-5.7922,-5.7926,-5.7819,-5.7985,-5.8258,-5.8285,-5.7931,-5.7928,-5.7925,0,-5.7846,-5.7912,-5.7999,-5.8008,-5.8001,-5.8043,-5.8042,-5.8043,-5.8067,-5.8091,-5.8106,-5.8138,-5.8155,-5.8181,-5.814,-5.8073,-5.8243,-5.8142,-5.8232,-5.8233,-5.8271,-5.8269,-5.8552,-5.8285,-5.8284,-5.8284,-5.8283,0,-5.8057,-5.814,-5.8084,-5.8138,-5.8229,-5.8175,-5.8267,-5.8257,-5.8259,-5.831,-5.824,-5.8289,-5.8231,-5.8275,-5.8243,-5.8329,-5.8337,-5.8326,-5.8316,-5.8332,-5.8334,-5.8346,-5.8333,-5.8291,-5.8289,-5.8288,-5.8287,0,-5.8281,-5.8247,-5.8337,-5.8323,-5.8322,-5.839,-5.8378,-5.8428,-5.8406,-5.8471,-5.8483,-5.8449,-5.8497,-5.8458,-5.8505,-5.8484,-5.8597,-5.857,-5.8595,-5.8588,-5.868,-5.8672,-5.898,-5.9019,-5.8727,-5.8729,-5.8732,0,-5.8419,-5.8481,-5.8475,-5.8504,-5.8508,-5.8556,-5.858,-5.8529,-5.8557,-5.857,-5.8619,-5.8661,-5.8692,-5.8773,-5.8752,-5.8788,-5.8762,-5.8868,-5.8767,-5.8781,-5.8764,-5.8761,-5.8768,-5.8888,-5.8891,-5.8894,-5.8897,0,-5.8666,-5.8646,-5.8684,-5.8717,-5.8747,-5.877,-5.8787,-5.8816,-5.8764,-5.8799,-5.8848,-5.8872,-5.8921,-5.8964,-5.8994,-5.8992,-5.8937,-5.8929,-5.8951,-5.8968,-5.8981,-5.8976,-5.8652,-5.8922,-5.8919,-5.8917,-5.8916,-5.8915,-5.8851,-5.8904,-5.8908,-5.8953,-5.8961,-5.8979,-5.9026,-5.901,-5.905,-5.9086,-5.9054,-5.9113,-5.9119,-5.9153,-5.9159,-5.9205,-5.9161,-5.9193,-5.9202,-5.9211,-5.9224,-5.8974,-5.921,-5.9209,-5.9208,-5.9207,-5.9207,0,-5.9096,-5.9095,-5.9137,-5.9164,-5.92,-5.9145,-5.9162,-5.9195,-5.9248,-5.9259,-5.9291,-5.9349,-5.9391,-5.9374,-5.9412,-5.9452,-5.9427,-5.9463,-5.946,-5.9461,-5.9261,-5.9238,-5.9483,-5.9482,-5.9482,-5.9482,-5.9482,-5.9482,-5.9227,-5.9314,-5.9295,-5.9385,-5.9383,-5.9441,-5.9456,-5.9473,-5.9481,-5.9548,-5.9583,-5.9572,-5.9573,-5.961,-5.9646,-5.964,-5.9658,-5.9703,-5.9689,-5.9502,-5.9475,-5.9449,-5.9427,-5.9707,-5.9708,-5.9885,-5.9886,-5.9888]},{"header":{"parameterUnit":"m.s-1","parameterCategory":1,"la1":30.2991,"la2":30.254,"lo1":-89.0895,"lo2":-89.0444,"dy":0.0017,"dx":0.0017,"nx":28,"ny":28,"refTime":"2025-08-30T03:00:00:Z","depth":0,"parameterNumber":3,"parameterNumberName":"V-component_of_WINDS"},"data":[0,0,0,0,0,0,0,0,0,0,0,0,0,0,0,0,0,0,0,0,0,0,0,0,0,0,0,0,0,0,0,0,0,0,0,0,0,0,0,0,0,0,0,0,0,0,0,0,0,0,0,0,0,0,0,0,0,0,-1.5067,-1.5067,0,-1.512,-1.5121,-1.5121,-1.5102,-1.5101,-1.5099,-1.5098,-1.5156,-1.5159,-1.5162,0,0,0,0,0,0,0,0,0,0,0,0,0,-1.4949,-1.4951,-1.5067,-1.5067,-1.5068,-1.512,-1.5121,-1.5122,-1.5102,-1.5101,-1.5099,-1.5098,-1.5155,-1.5159,-1.5162,0,0,0,0,0,0,0,0,0,0,0,0,0,-1.5001,-1.4952,-1.5066,-1.5064,-1.5065,-1.512,-1.5121,-1.5122,-1.5102,-1.51,-1.5099,-1.5097,-1.5154,-1.5158,-1.5162,-1.5224,0,0,-1.5175,-1.5176,0,0,0,0,0,0,0,0,-1.4998,-1.5005,-1.5064,-1.5065,-1.5065,-1.5102,-1.5101,-1.5156,-1.5103,-1.5088,-1.5098,-1.5096,-1.514,-1.5145,-1.5159,-1.5226,-1.5229,-1.5175,-1.5177,-1.5179,-1.518,0,0,0,0,0,0,0,-1.4995,-1.5003,-1.5088,-1.5065,-1.5066,-1.5061,-1.5067,-1.5111,-1.5124,-1.5089,-1.5088,-1.5094,-1.514,-1.5155,-1.5161,-1.523,-1.5175,-1.5178,-1.5181,-1.5182,-1.5349,-1.5351,0,0,0,0,0,0,-1.499,-1.5,-1.5086,-1.5089,-1.5026,-1.5065,-1.5071,-1.5092,-1.5123,-1.5126,-1.5096,-1.5093,-1.5149,-1.5156,-1.5162,-1.5236,-1.5179,-1.5183,-1.5185,-1.5347,-1.535,-1.5352,0,0,0,0,0,0,-1.4988,-1.4998,-1.5084,-1.5044,-1.5055,-1.5069,-1.5093,-1.5094,-1.511,-1.5128,-1.5131,-1.5109,-1.5148,-1.5157,-1.5208,-1.5238,-1.5185,-1.5188,-1.5345,-1.5348,-1.5351,-1.5385,0,0,0,0,0,0,-1.4985,-1.4997,-1.5021,-1.5045,-1.5057,-1.5129,-1.5095,-1.5097,-1.5116,-1.5113,-1.5141,-1.5144,-1.5147,-1.5202,-1.5212,-1.5243,-1.5191,-1.5342,-1.5346,-1.535,-1.5381,-1.5388,-1.5395,0,0,0,0,0,-1.498,-1.5029,-1.5022,-1.5033,-1.5086,-1.513,-1.5137,-1.5139,-1.5119,-1.5143,-1.5154,-1.5143,-1.5233,-1.5208,-1.5219,-1.5251,-1.5341,-1.5345,-1.535,-1.5378,-1.5387,-1.5395,0,0,0,0,0,0,-1.5009,-1.5032,-1.5025,-1.5082,-1.5104,-1.5127,-1.5157,-1.5149,-1.5178,-1.5174,-1.5176,-1.5182,-1.5235,-1.5248,-1.522,-1.5312,-1.5284,-1.5291,-1.5301,-1.531,-1.5317,-1.5313,-1.5195,0,0,0,0,0,-1.5022,-1.5055,-1.5073,-1.5123,-1.5134,-1.5143,-1.5163,-1.5162,-1.5185,-1.5195,-1.521,-1.5234,-1.5267,-1.5289,-1.5321,-1.5382,-1.5388,-1.541,-1.5417,-1.5422,-1.5429,-1.5462,-1.5471,-1.5367,-1.5367,-1.5367,0,0,-1.5049,-1.5066,-1.5087,-1.5129,-1.5146,-1.518,-1.5151,-1.519,-1.5215,-1.5201,-1.525,-1.5262,-1.5289,-1.5345,-1.5371,-1.5357,-1.5458,-1.5428,-1.5432,-1.5436,-1.5467,-1.5477,-1.5486,-1.537,-1.5369,-1.5369,0,0,-1.5117,-1.5132,-1.5175,-1.5192,-1.5217,-1.5223,-1.5233,-1.5256,-1.5264,-1.5313,-1.5302,-1.5333,-1.5391,-1.541,-1.5427,-1.55,-1.5491,-1.551,-1.5547,-1.5579,-1.5587,-1.5595,-1.5621,-1.563,-1.5516,-1.5516,-1.5516,0,-1.5148,-1.5199,-1.5198,-1.5236,-1.5255,-1.5242,-1.5285,-1.5302,-1.5337,-1.535,-1.5334,-1.5405,-1.5422,-1.5483,-1.55,-1.5515,-1.5527,-1.5508,-1.5586,-1.5593,-1.56,-1.5625,-1.5635,-1.5518,-1.5518,-1.5518,-1.5518,0,-1.5236,-1.5271,-1.5303,-1.5335,-1.5357,-1.5398,-1.5403,-1.5426,-1.5423,-1.543,-1.548,-1.55,-1.5535,-1.5549,-1.5547,-1.5609,-1.56,-1.5585,-1.5557,-1.5612,-1.5636,-1.5646,-1.5521,-1.5521,-1.552,-1.5519,0,0,-1.5325,-1.5355,-1.5366,-1.5381,-1.5407,-1.5435,-1.5474,-1.5507,-1.5527,-1.5551,-1.5585,-1.5633,-1.5618,-1.5638,-1.5638,-1.5666,-1.5722,-1.5648,-1.5648,-1.5661,-1.5792,-1.5804,-1.5815,-1.5716,-1.5718,-1.5719,-1.579,0,-1.5395,-1.5464,-1.5463,-1.5527,-1.556,-1.5547,-1.5581,-1.5601,-1.5609,-1.5638,-1.5647,-1.5681,-1.566,-1.5672,-1.5699,-1.571,-1.5749,-1.5704,-1.5748,-1.575,-1.5743,-1.5827,-1.584,-1.5906,-1.5799,-1.5801,-1.5802,0,-1.5486,-1.5512,-1.5579,-1.5599,-1.5612,-1.5644,-1.5673,-1.5701,-1.5724,-1.5727,-1.5748,-1.5743,-1.5784,-1.5754,-1.581,-1.578,-1.5798,-1.5806,-1.5809,-1.5814,-1.578,-1.5835,-1.5927,-1.5937,-1.5817,-1.5815,-1.5814,0,-1.5545,-1.5596,-1.5642,-1.5655,-1.568,-1.5702,-1.5713,-1.5733,-1.5753,-1.5779,-1.5792,-1.5823,-1.584,-1.5864,-1.5868,-1.5846,-1.5925,-1.5895,-1.593,-1.593,-1.5948,-1.5947,-1.6045,-1.5958,-1.5958,-1.5958,-1.5958,0,-1.5623,-1.5665,-1.5669,-1.5697,-1.5743,-1.5742,-1.5788,-1.5798,-1.5816,-1.5846,-1.5837,-1.5866,-1.5868,-1.5899,-1.5902,-1.5948,-1.5956,-1.5961,-1.5961,-1.5962,-1.5962,-1.5975,-1.5971,-1.5961,-1.596,-1.5959,-1.5959,0,-1.5697,-1.5701,-1.5751,-1.577,-1.5775,-1.5808,-1.5825,-1.5852,-1.5858,-1.5897,-1.5906,-1.5916,-1.5951,-1.5956,-1.5998,-1.6,-1.6056,-1.6051,-1.6048,-1.6048,-1.6082,-1.6079,-1.6192,-1.6207,-1.611,-1.6111,-1.6112,0,-1.5748,-1.5779,-1.58,-1.582,-1.5832,-1.5863,-1.5883,-1.5882,-1.5903,-1.593,-1.5954,-1.5988,-1.6015,-1.6071,-1.6083,-1.6114,-1.6111,-1.6148,-1.6116,-1.6115,-1.6112,-1.611,-1.6114,-1.6155,-1.6156,-1.6157,-1.6157,0,-1.5837,-1.5837,-1.5864,-1.5893,-1.5916,-1.5938,-1.596,-1.5976,-1.5978,-1.6002,-1.6037,-1.6058,-1.6099,-1.6133,-1.6163,-1.6176,-1.6168,-1.6167,-1.6177,-1.6179,-1.6176,-1.6178,-1.6066,-1.6165,-1.6164,-1.6164,-1.6163,-1.6163,-1.5901,-1.5928,-1.5947,-1.5978,-1.5993,-1.6013,-1.6039,-1.6048,-1.6077,-1.6109,-1.6107,-1.6146,-1.6166,-1.6207,-1.6221,-1.6252,-1.624,-1.6254,-1.6258,-1.6261,-1.6265,-1.617,-1.6257,-1.6257,-1.6257,-1.6257,-1.6257,0,-1.599,-1.6001,-1.6029,-1.6058,-1.6083,-1.607,-1.6093,-1.6115,-1.6148,-1.6168,-1.6194,-1.6233,-1.6266,-1.6279,-1.631,-1.6332,-1.6329,-1.6341,-1.634,-1.6343,-1.6274,-1.6262,-1.6343,-1.6343,-1.6343,-1.6343,-1.6343,-1.6343,-1.6039,-1.6084,-1.6086,-1.6138,-1.6149,-1.6186,-1.62,-1.6218,-1.6233,-1.6278,-1.6304,-1.6311,-1.6329,-1.6361,-1.639,-1.6393,-1.6406,-1.6419,-1.6421,-1.6356,-1.6348,-1.6339,-1.6329,-1.6422,-1.6422,-1.6488,-1.6488,-1.6489]}]]